Simultaneous Nadir Overpasses (SNOs) Predictions

Prediction of SNOs between LANDSAT-8 and NPP Satellite Orbit:

Table of predicted SNOs for the next 14.0 days since TLE Epoch: 8/4/2018
Index Date (LANDSAT-8) Time (LANDSAT-8) Lat,Lon (LANDSAT-8) SZA (LANDSAT-8 ) Date (NPP) Time (NPP) Lat,Lon (NPP) SZA (NPP ) Distance(km) Time Diff (sec)
1 08/05/2018 06:08:15 70.21, 84.42 53.22 08/05/2018 06:07:03 70.19, 84.46 53.21 2.46 72
2 08/05/2018 06:57:45 -70.09,-108.12 126.88 08/05/2018 06:57:45 -70.10,-108.08 126.88 1.36 0
3 08/05/2018 07:47:15 69.83, 59.16 52.88 08/05/2018 07:48:26 69.82, 59.64 52.85 18.48 71
4 08/07/2018 22:24:46 70.19,-159.73 53.94 08/07/2018 22:24:00 70.19,-159.77 53.95 1.50 46
5 08/07/2018 23:14:16 -70.07, 7.74 126.16 08/07/2018 23:14:42 -70.09, 7.69 126.15 2.36 26
6 08/10/2018 13:51:35 -71.08, 149.86 124.45 08/10/2018 13:50:29 -71.13, 147.15 124.30 97.44 66
7 08/10/2018 14:41:18 70.11, -43.97 54.63 08/10/2018 14:40:56 70.13, -43.92 54.66 3.01 22
8 08/10/2018 15:30:47 -70.06, 123.59 125.41 08/10/2018 15:31:38 -70.03, 123.55 125.44 3.24 51
9 08/13/2018 06:08:20 -70.25, -95.54 124.45 08/13/2018 06:07:08 -70.23, -95.63 124.45 3.64 72
10 08/13/2018 06:57:48 70.08, 71.88 55.41 08/13/2018 06:57:51 70.08, 71.92 55.40 1.76 3
11 08/13/2018 07:47:19 -69.92,-120.72 124.74 08/13/2018 07:48:32 -69.92,-120.52 124.76 7.43 73
12 08/15/2018 22:24:52 -70.17, 20.23 123.70 08/15/2018 22:24:04 -70.18, 20.22 123.68 1.55 48
13 08/15/2018 23:14:19 70.06,-172.28 56.20 08/15/2018 23:14:48 70.08,-172.32 56.23 3.18 29




NCC Satellite Simultaneous Nadir Overpasses (SNOs) Prediction Service
